Location: Madrid
(40.4000°N, 3.6830°W)
Time: 18:59:11
(UTC+01:00)

ISS - Pass Details

Date: 23 January 2020
Orbit: 415 x 422 km, 51.6° (Epoch: 23 January)

Event Time Altitude Azimuth Distance (km) Brightness Sun altitude
Rises 19:07:09 0° 235° (SW) 2,359 1.8 -8.9°
Reaches altitude 10° 19:09:14 10° 237° (WSW) 1,498 0.5 -9.3°
Maximum altitude 19:12:36 77° 324° (NW) 435 -3.7 -9.9°
Enters shadow 19:15:27 14° 50° (NE) 1,290 -1.9 -10.4°
